Location: Crescent
(42.8242°N, 73.7329°W)
Time: 06:59:21
(UTC+00:00)

Transit 4A - Pass Details

Date: 24 February 2026
Orbit: 864 x 977 km, 66.8° (Epoch: 9 March)

Event Time Altitude Azimuth Distance (km) Brightness Sun altitude
Rises 08:10:43 0° 236° (SW) 3,459 - -38.1°
Reaches altitude 10° 08:13:22 10° 245° (WSW) 2,536 - -37.7°
Maximum altitude 08:18:45 37° 311° (NW) 1,374 - -36.8°
Exits shadow 08:22:03 21° 4° (N) 1,913 9.7 -36.2°
Drops below altitude 10° 08:24:19 10° 18° (NNE) 2,616 10.6 -35.8°
Sets 08:27:06 0° 27° (NNE) 3,581 11.6 -35.4°
